Aeroporto :
LOGIN :

Iscrizione | Disclaimer

   EN    FR    IT 

 










Sommario :    VFR   VFR Marginale   IFR   IFR Intensivo   IFR Molto Intensivo
Visibilità : 
Base nubi : 
>= 8 km
>= 3000ft
5 / 8 km
1000 / 3000 ft
1500m / 5 km
500 / 1000 ft
800 / 1500m
200 / 500 ft
< 800m
< 200 ft
Simboli :   Temporali  Nebbia  Neve Forte  Precipitazioni Forti  Vento > 20 kt
SIGMETs :   Varie  Temporali  Ghiacco  Turbolenza  Onda orograficha  Ceneri Vulcaniche






- Altitudine del aeroporto : 602 ft
- Codice IATA : NVS


LFQG - Nevers

ULTIMO METAR :
  • 041600Z AUTO 00000KT 3900 -RA BR BKN034/// BKN040/// OVC046/// ///TCU 05/05 Q1011

METARs OBSOLETI :
  • 041530Z AUTO 00000KT 4600 -RA BR SCT007/// OVC033/// ///TCU 06/05 Q1010
  • 041500Z AUTO 00000KT 3800 -RA BR BKN007/// BKN016/// OVC031/// ///TCU 06/05 Q1010
  • 041430Z AUTO 11003KT 5000 -RA BR BKN017/// OVC035/// ///TCU 06/05 Q1010
  • 041400Z AUTO VRB02KT 8000 -RA FEW009/// OVC016/// ///TCU 06/04 Q1010
  • 041330Z AUTO 19003KT 7000 -RA OVC015/// ///CB 06/04 Q1010

TAF N/A



MetMap, La meteo Aeronautica in un colpo d'occhio ! - Copyright ORBIFLY Dicembre 2007 - Disclaimer

ORBIFLY MET'MAP TEAM :

Programmazione e sviluppo : Alexandra Zaïnal
Concezione : Baudouin d'Aumeries
Supporto tecnico e logistico : Manuel Goepfert
Aiuto : Marc-Olivier Méhu
Aiuto per la traduzione : Arnaldo La Scala




FONTI E CREDITI :

   NOAA